Weather Roundup
Issued by NWS Chicago, IL

Home | Current Version | Previous Version | Text Only | Print | Product List | Glossary Off
Versions: 1 2 3 4 5 6 7 8 9 10 11 12 13 14 15 16 17 18 19 20 21 22 23 24 25 26 27 28 29 30 31 32 33 34 35 36 37 38 39 40 41 42 43 44 45 46 47 48 49 50

000
NZUS59 KLOT 220710
HRRLOT

CHICAGO AREA WEATHER ROUNDUP
NATIONAL WEATHER SERVICE CHICAGO/ROMEOVILLE IL
200 AM CDT MON SEP 22 2014

NOTE: "FAIR" INDICATES FEW OR NO CLOUDS BELOW 12,000 FEET WITH NO
SIGNIFICANT WEATHER AND/OR OBSTRUCTIONS TO VISIBILITY.

* THESE STATIONS ARE NOT UNDER NWS QUALITY CONTROL. THEY ALSO MAY NOT
  REPORT WEATHER SUCH AS PRECIPITATION OR FOG.

ILZ005-006-012>014-019>023-220800-
NORTHEAST ILLINOIS

CITY           SKY/WX    TMP DP  RH WIND       PRES   REMARKS
OHARE          PTCLDY    50  42  74 N9        30.17R
MIDWAY         PTCLDY    53  45  74 N8        30.16R
AURORA         CLEAR     44  41  89 NW6       30.19R
LANSING*       CLOUDY    55  47  73 N7        30.15R
JOLIET*        CLEAR     48  44  88 CALM      30.18R
WAUKEGAN       CLEAR     45  41  86 NW5       30.17R
DUPAGE AIRPORT CLEAR     43  41  93 N6        30.17R
WHEELING       CLEAR     49  43  80 N7        30.18R
KANKAKEE*      CLEAR     49  45  84 NW3       30.17R
MORRIS*        CLEAR     45  45 100 CALM      30.17R
LEWIS AIRPORT* CLEAR     47  44  89 N6        30.17R
NORTHERLY IS     N/A     55  45  68 N15         N/A
$$

WIZ051-052-058>065-066-070>072-220800-
SOUTHEAST WISCONSIN

CITY           SKY/WX    TMP DP  RH WIND       PRES   REMARKS
MILWAUKEE      CLEAR     47  40  76 N7        30.19R
KENOSHA*       CLEAR     46  41  82 NW8       30.19R
RACINE*        CLEAR     46  41  82 NW8       30.19R
BURLINGTON     CLEAR     40  39  97 N5        30.19S
WAUKESHA       CLEAR     41  37  87 CALM      30.20S
WEST BEND      CLEAR     39  36  87 CALM      30.18F
$$

INZ001>003-010>013-019-020-220800-
NORTHWEST INDIANA

CITY           SKY/WX    TMP DP  RH WIND       PRES   REMARKS
GARY*          MOCLDY    56  45  65 N15       30.16R
MICHIGAN CITY* NOT AVBL
RENSSELAER*    NOT AVBL
VALPARAISO     PTCLDY    51  44  77 N6        30.15R
$$

LMZ740>746-220800-
SOUTHERN LAKE MICHIGAN

STATION/POSITION TIME  SKY/WX   TEMP WIND        PRES    VSBY
                                AIR  DIR/SP/G
                 (UTC)          (F)  (DEG/KT/KT) (MB)    (MI)
HARRISON CRIB    0700            55   10/ 18/ 21   N/A
BURNHAM HARBOR   0700            55   10/ 13/ 16   N/A
CALUMET HARBOR   0700            56  350/ 10/ 19 1019.9S
BURNS HARBOR     NOT AVBL
MICHIGAN CITY    0700            55  360/ 22/ 26   N/A
$$

ABBREVIATIONS USED IN REMARKS
   TC - TEMPERATURE IN CELSIUS
  WCI - WIND CHILL INDEX
   HX - HEAT INDEX
  VSB - VISIBILITY
$$



USA.gov is the U.S. government's official web portal to all federal, state and local government web resources and services.